Temp
64 63 64 64 63 63 63 63 63 63 62 62 62 62 62 62 61 60 55 64 66 70 67 65 66 65 66 62 61 62 47 47 53 59 58 68 64 68 72 68 70 70 64 68 73
63 62 63 63 63 63 62 62 62 62 62 62 62 62 62 61 59 57 67 69 68 68 61 57 59 62 56 59 57 52 47 50 62 65 61 64 65 65 65 66 67 68 69 72 71
63 63 62 63 62 62 62 62 62 62 62 62 61 61 61 61 53 54 65 66 67 67 63 58 59 58 53 58 56 52 48 56 59 64 63 64 63 65 63 62 64 63 64 65 68
63 63 62 62 62 62 61 62 61 61 61 61 61 61 61 59 38 60 65 66 67 66 61 55 55 51 50 50 59 50 55 59 59 60 61 62 66 61 63 63 69 70 69 66 67
62 62 61 61 61 61 61 61 61 61 61 61 61 61 57 51 52 67 67 68 66 62 56 51 51 51 49 53 57 53 57 60 61 56 61 63 62 61 61 67 70 72 69 64 66
62 61 61 60 60 60 60 60 61 61 60 61 61 60 54 44 66 68 66 65 61 59 55 54 51 55 53 56 55 59 59 60 60 56 55 60 61 62 63 67 68 70 68 65 66
62 61 60 60 60 60 60 60 60 60 60 60 61 60 53 52 67 67 66 60 58 53 51 56 53 48 51 53 62 62 54 58 53 54 54 61 54 55 64 66 65 67 67 67 66
61 61 60 60 59 59 60 59 59 60 60 60 61 58 48 65 66 65 66 59 59 55 50 54 55 50 49 56 59 52 53 45 55 54 55 57 47 60 64 62 62 63 66 67 68
61 60 59 59 59 59 59 59 59 60 60 60 56 55 48 63 59 63 64 57 57 54 52 55 52 47 49 43 45 47 41 45 49 58 56 54 48 62 65 63 60 59 62 67 67
60 59 59 59 59 58 58 58 59 58 59 62 60 48 52 51 58 60 63 60 53 51 46 45 44 38 43 43 34 40 42 46 46 50 52 50 49 57 56 57 59 60 63 64 65
59 58 58 58 58 58 56 54 49 48 54 49 49 50 54 58 62 57 60 56 52 45 36 40 35 34 42 49 51 49 48 46 51 55 51 50 51 54 57 56 55 58 61 64 66
58 58 58 58 58 57 56 49 52 54 45 53 53 53 56 56 48 53 58 47 46 34 36 38 34 42 50 53 53 52 47 45 49 55 53 50 50 55 60 57 59 61 62 64 67
58 57 57 57 57 55 53 56 60 60 44 48 52 51 51 53 46 46 50 48 40 35 38 36 39 45 47 46 47 50 47 43 44 50 52 50 46 51 57 59 61 62 63 66 68
57 57 57 56 51 56 53 60 60 59 35 39 45 48 52 52 39 49 52 46 42 36 40 39 44 41 44 45 50 43 54 53 50 44 37 49 33 48 54 54 58 58 59 61 67
57 57 57 56 52 52 56 60 60 53 23 40 44 58 54 45 42 43 50 47 40 39 39 36 41 42 44 48 53 47 54 52 50 44 44 41 34 43 54 51 55 58 58 60 62
56 56 56 55 55 58 61 60 54 33 23 34 45 45 45 48 45 45 44 46 47 41 44 41 48 44 43 52 53 53 49 50 48 44 28 42 40 40 46 51 53 58 60 61 62
55 55 55 61 51 60 59 50 32 29 41 35 36 44 45 42 41 40 40 40 36 31 32 38 38 45 48 45 50 48 43 28 25 23 26 44 38 42 51 55 56 53 55 59 62
55 56 55 59 59 59 53 40 30 37 35 42 41 43 39 44 42 45 43 39 44 41 34 32 29 40 48 45 42 44 43 30 24 24 29 42 32 43 54 57 57 58 56 58 59
55 55 55 54 58 56 45 32 33 36 42 40 40 37 38 42 43 44 43 40 42 44 35 33 32 44 47 48 47 42 35 44 35 35 29 36 42 48 55 53 55 55 56 54 55
53 53 50 56 57 51 39 35 36 46 49 46 36 40 37 40 41 40 42 47 44 47 48 43 30 40 45 48 49 46 48 35 32 23 24 32 36 40 46 49 52 51 50 53 54
50 46 49 55 54 44 35 40 45 50 51 45 44 43 43 41 43 41 43 45 47 45 47 46 39 36 44 39 39 41 39 42 41 34 26 25 33 49 49 51 50 51 52 50 51
50 38 50 54 39 41 41 47 47 48 51 49 48 49 46 46 43 44 44 44 49 48 42 46 41 31 36 46 49 47 42 43 29 30 31 30 33 53 51 52 53 52 55 52 53
47 43 49 49 35 40 46 47 50 47 48 48 48 50 50 46 41 45 45 50 50 47 44 46 38 30 31 39 44 40 45 46 43 35 29 25 34 53 50 51 53 51 52 54 54
48 36 41 43 46 42 44 44 44 49 50 51 50 51 48 45 47 44 43 48 50 50 50 47 42 35 26 32 39 35 42 44 38 28 32 33 37 43 48 50 52 53 51 53 54
47 42 45 35 41 45 47 48 45 43 49 51 47 49 47 42 44 43 46 45 48 49 46 45 34 32 37 42 38 37 40 42 34 38 29 38 42 48 49 50 52 54 55 54 53
44 43 44 45 48 46 44 44 46 45 47 46 46 48 48 44 43 42 46 44 43 46 43 46 32 34 31 43 41 35 40 41 42 43 42 42 41 52 54 55 54 53 54 54 55
46 48 44 44 43 43 43 46 47 48 47 50 49 47 45 45 47 47 49 50 48 45 43 42 37 31 27 37 38 30 39 41 42 45 44 37 45 51 49 52 51 51 53 54 55
MSLP
1019.52 1019.27 1019.01 1018.81 1018.45 1018.11 1017.89 1017.58 1017.19 1016.94 1016.52 1016.22 1016.02 1015.84 1015.75 1015.70 1015.69 1015.41 1014.70 1014.10 1013.90 1013.50 1013.94 1013.92 1013.55 1013.47 1013.20 1013.14 1013.39 1013.18 1012.86 1011.33 1010.16 1009.14 1009.37 1008.78 1009.40 1009.69 1009.73 1009.81 1009.87 1010.52 1011.63 1012.07 1012.24
1019.41 1019.19 1018.91 1018.76 1018.46 1018.10 1017.88 1017.63 1017.33 1016.99 1016.63 1016.32 1016.14 1015.95 1015.87 1015.83 1015.49 1014.58 1013.96 1013.74 1013.89 1014.02 1014.23 1013.99 1013.23 1013.25 1013.20 1012.84 1013.26 1013.12 1011.64 1011.05 1009.99 1009.27 1009.98 1009.97 1009.88 1010.13 1010.37 1010.33 1010.76 1011.32 1012.13 1012.27 1012.48
1019.33 1019.05 1018.85 1018.65 1018.46 1018.07 1017.76 1017.56 1017.28 1017.08 1016.77 1016.44 1016.26 1016.03 1016.06 1015.91 1015.26 1014.24 1014.25 1014.19 1014.05 1014.01 1014.16 1014.22 1013.56 1013.06 1013.05 1012.60 1012.50 1012.52 1011.86 1011.79 1010.99 1010.50 1010.96 1010.56 1010.70 1010.78 1010.79 1011.03 1011.32 1011.57 1012.29 1012.90 1013.40
1019.17 1018.90 1018.73 1018.55 1018.38 1018.03 1017.74 1017.45 1017.27 1017.04 1016.77 1016.57 1016.35 1016.21 1016.12 1015.88 1015.12 1014.21 1014.33 1014.23 1013.78 1013.79 1014.05 1014.23 1013.63 1013.30 1012.62 1012.26 1011.79 1012.03 1012.35 1011.97 1011.69 1011.86 1011.53 1010.69 1010.81 1011.06 1011.00 1011.46 1011.52 1011.71 1012.10 1012.75 1013.47
1019.03 1018.73 1018.57 1018.39 1018.18 1017.97 1017.69 1017.42 1017.23 1017.00 1016.79 1016.59 1016.41 1016.36 1016.31 1015.29 1014.32 1013.84 1013.87 1013.58 1013.27 1013.23 1013.74 1014.33 1013.65 1013.11 1012.42 1011.85 1011.50 1011.17 1011.05 1011.87 1011.76 1013.48 1012.62 1011.72 1011.14 1011.14 1011.48 1011.64 1011.74 1011.69 1012.57 1012.73 1013.38
1018.79 1018.54 1018.37 1018.18 1018.01 1017.79 1017.53 1017.24 1017.11 1016.99 1016.79 1016.59 1016.51 1016.48 1016.16 1014.87 1013.98 1013.87 1013.72 1013.41 1013.55 1013.19 1013.95 1014.08 1013.75 1012.96 1012.56 1011.39 1011.03 1010.67 1011.06 1011.33 1012.07 1013.72 1013.85 1012.70 1011.51 1011.25 1011.72 1011.59 1011.77 1011.89 1012.45 1012.86 1013.23
1018.51 1018.28 1018.15 1017.95 1017.80 1017.54 1017.28 1017.04 1016.96 1016.91 1016.73 1016.54 1016.35 1016.22 1015.42 1014.49 1013.82 1013.88 1013.49 1013.94 1014.31 1014.42 1014.47 1014.33 1014.25 1014.15 1013.29 1011.37 1010.46 1010.06 1010.86 1010.89 1012.19 1012.94 1013.49 1011.69 1012.14 1011.50 1011.67 1011.74 1011.75 1012.02 1012.26 1012.70 1013.05
1018.26 1018.01 1017.88 1017.75 1017.64 1017.37 1017.09 1016.92 1016.81 1016.78 1016.68 1016.51 1016.32 1015.99 1014.85 1014.16 1014.00 1013.84 1013.53 1013.90 1014.44 1014.98 1015.22 1014.76 1014.60 1014.47 1013.67 1011.55 1010.17 1010.93 1011.17 1011.56 1011.81 1012.90 1013.34 1012.20 1011.84 1011.65 1011.68 1012.03 1012.11 1011.98 1012.14 1012.50 1012.80
1018.02 1017.75 1017.59 1017.53 1017.49 1017.26 1016.98 1016.76 1016.56 1016.47 1016.48 1016.33 1016.21 1015.45 1014.40 1014.18 1014.02 1014.02 1013.90 1013.87 1014.40 1014.83 1015.06 1015.28 1014.95 1014.74 1013.50 1012.55 1011.26 1011.07 1010.96 1011.29 1011.51 1012.15 1012.41 1012.65 1011.91 1011.30 1011.57 1011.87 1012.11 1012.00 1012.12 1012.38 1012.44
1017.85 1017.60 1017.42 1017.35 1017.23 1017.03 1016.86 1016.58 1016.46 1016.41 1016.22 1015.72 1015.53 1015.69 1015.00 1014.17 1014.23 1014.32 1014.05 1014.15 1014.35 1014.77 1015.35 1015.65 1015.33 1015.02 1013.35 1012.04 1010.98 1010.95 1010.97 1011.14 1011.31 1012.28 1013.03 1012.45 1012.07 1011.95 1012.11 1012.04 1012.17 1012.27 1012.17 1012.38 1012.36
1017.66 1017.47 1017.27 1017.12 1016.98 1016.79 1016.75 1016.59 1016.81 1016.32 1015.60 1015.19 1015.07 1014.87 1014.44 1014.49 1014.22 1014.19 1014.35 1014.20 1014.63 1015.25 1015.54 1015.90 1015.80 1014.49 1012.57 1010.95 1010.54 1010.38 1010.36 1010.65 1010.96 1011.52 1012.37 1012.37 1012.58 1012.60 1012.44 1012.21 1012.26 1012.47 1012.33 1012.26 1012.32
1017.44 1017.29 1017.06 1016.90 1016.74 1016.59 1016.61 1016.09 1015.72 1015.98 1015.29 1015.23 1015.21 1015.00 1014.94 1014.93 1014.39 1014.50 1014.79 1014.69 1014.71 1015.60 1015.89 1015.61 1014.84 1013.77 1012.42 1011.27 1010.47 1010.00 1010.36 1011.14 1011.36 1011.71 1012.19 1012.59 1012.58 1012.06 1011.53 1011.89 1012.00 1012.10 1012.20 1012.31 1012.11
1017.24 1017.08 1016.88 1016.70 1016.71 1016.70 1016.22 1015.52 1015.67 1015.66 1015.41 1015.15 1015.21 1014.95 1015.03 1015.21 1014.92 1015.06 1015.55 1015.16 1015.40 1015.63 1015.14 1014.67 1014.29 1013.50 1012.64 1011.65 1011.02 1010.32 1010.18 1011.43 1011.60 1012.45 1012.25 1012.06 1012.03 1011.62 1011.24 1011.26 1011.44 1011.48 1011.55 1011.70 1011.74
1016.97 1016.94 1016.71 1016.64 1016.97 1016.04 1015.74 1015.68 1015.89 1015.79 1015.71 1015.63 1015.05 1015.14 1015.08 1014.91 1015.75 1016.03 1015.77 1015.81 1015.64 1015.47 1014.99 1014.76 1014.59 1013.58 1012.75 1011.46 1010.14 1010.00 1009.76 1010.52 1011.27 1012.07 1012.40 1012.30 1012.13 1010.94 1010.62 1010.86 1010.93 1011.07 1011.20 1011.21 1011.19
1016.65 1016.64 1016.48 1016.55 1016.33 1015.84 1015.83 1015.82 1015.92 1016.01 1015.98 1016.05 1015.17 1014.98 1014.64 1014.98 1015.93 1016.04 1016.26 1015.60 1015.29 1015.23 1015.33 1015.45 1014.05 1013.06 1012.56 1011.50 1010.80 1010.69 1009.84 1010.75 1011.68 1012.38 1012.51 1012.99 1012.84 1010.62 1010.05 1010.51 1010.33 1010.49 1010.78 1010.93 1011.12
1016.37 1016.31 1016.33 1016.53 1016.19 1015.89 1015.81 1015.83 1016.05 1016.29 1015.97 1015.93 1015.45 1014.71 1014.40 1014.36 1015.08 1015.77 1015.88 1016.20 1015.96 1015.54 1015.13 1015.24 1014.73 1013.86 1012.99 1012.02 1011.58 1011.93 1011.51 1011.79 1012.24 1012.95 1013.46 1012.76 1012.35 1010.63 1009.81 1009.44 1009.43 1009.66 1010.08 1010.46 1010.77
1016.10 1016.05 1016.26 1015.57 1015.94 1015.95 1015.90 1016.02 1016.26 1015.65 1015.71 1015.85 1015.50 1014.68 1014.15 1014.29 1014.80 1015.35 1015.29 1015.25 1015.43 1015.52 1015.35 1015.45 1015.19 1014.56 1014.03 1012.83 1012.00 1011.56 1011.92 1013.14 1014.02 1014.06 1013.17 1012.19 1011.99 1010.54 1009.51 1009.19 1009.24 1009.59 1009.82 1009.91 1009.99
1015.93 1016.02 1016.07 1015.86 1016.08 1016.03 1015.99 1016.06 1015.69 1015.32 1015.25 1015.44 1015.13 1014.68 1014.17 1014.11 1014.35 1013.58 1014.09 1014.21 1014.43 1014.63 1015.22 1015.62 1016.28 1015.51 1014.56 1013.85 1013.05 1012.53 1012.36 1013.37 1013.81 1014.10 1013.70 1012.82 1011.49 1009.92 1009.28 1009.26 1009.47 1009.70 1009.88 1009.87 1010.13
1015.95 1015.94 1015.87 1016.55 1016.32 1016.25 1016.07 1015.60 1015.14 1014.82 1014.52 1014.69 1014.74 1013.94 1013.89 1013.84 1013.75 1013.59 1013.43 1013.89 1014.31 1014.42 1014.68 1014.86 1015.78 1015.69 1014.99 1014.59 1014.09 1013.21 1013.04 1013.66 1013.88 1013.42 1013.51 1013.00 1011.42 1010.09 1009.39 1009.46 1009.62 1009.86 1010.09 1010.12 1010.23
1015.62 1015.53 1016.21 1016.61 1016.53 1016.27 1015.90 1014.97 1014.44 1014.06 1013.58 1013.81 1013.51 1013.32 1012.80 1012.99 1013.01 1012.98 1012.93 1013.33 1013.73 1013.86 1013.88 1013.96 1015.14 1015.80 1015.43 1014.98 1014.16 1013.71 1013.59 1013.98 1014.16 1014.40 1014.00 1013.00 1011.39 1010.21 1010.00 1010.08 1010.14 1010.23 1010.35 1010.43 1010.48
1015.62 1015.54 1016.77 1016.72 1016.69 1016.14 1015.10 1013.99 1013.61 1013.68 1013.47 1013.21 1012.59 1012.30 1012.25 1012.30 1012.30 1012.46 1012.72 1013.60 1013.72 1013.85 1013.87 1013.60 1014.15 1015.92 1015.60 1015.26 1014.43 1014.31 1014.15 1014.03 1014.24 1014.82 1014.79 1013.67 1011.88 1009.75 1010.21 1010.53 1010.81 1010.84 1010.90 1010.94 1011.00
1015.01 1015.73 1016.78 1016.78 1016.69 1015.53 1014.03 1013.26 1013.17 1013.25 1013.43 1012.90 1012.54 1011.64 1011.43 1011.70 1011.86 1012.01 1012.29 1013.04 1013.63 1013.64 1013.77 1013.76 1014.32 1015.32 1015.38 1014.94 1014.61 1014.41 1014.31 1014.24 1014.79 1015.40 1015.15 1014.36 1012.54 1010.73 1010.57 1010.57 1010.70 1010.92 1011.07 1011.27 1011.46
1014.56 1015.81 1016.84 1016.70 1015.84 1014.59 1013.57 1013.21 1012.82 1012.85 1012.83 1012.58 1011.94 1011.80 1011.54 1011.37 1011.67 1011.89 1012.42 1013.20 1013.47 1013.55 1013.74 1013.88 1014.42 1015.24 1015.44 1015.23 1014.71 1014.69 1014.28 1014.32 1014.77 1015.37 1015.37 1014.85 1012.69 1011.12 1010.75 1010.74 1010.81 1010.90 1010.86 1011.06 1011.46
1014.03 1015.31 1016.52 1016.43 1015.22 1014.13 1012.98 1012.79 1012.84 1012.70 1012.41 1012.31 1011.91 1011.74 1011.45 1011.46 1011.62 1011.93 1012.57 1013.20 1013.45 1013.55 1013.83 1014.13 1014.29 1014.55 1014.87 1014.48 1014.33 1014.52 1014.23 1014.35 1015.02 1015.93 1015.22 1014.23 1012.77 1011.56 1011.04 1010.79 1010.67 1010.77 1010.94 1011.07 1011.41
1013.39 1013.61 1014.15 1014.79 1014.22 1013.39 1012.53 1012.31 1012.35 1012.59 1012.56 1012.30 1012.02 1011.80 1011.59 1011.61 1011.76 1012.09 1012.82 1013.40 1013.66 1013.79 1013.99 1014.24 1014.45 1014.58 1014.79 1014.53 1014.45 1014.24 1014.14 1014.19 1014.54 1014.47 1014.67 1013.63 1012.50 1011.48 1010.93 1010.71 1010.55 1010.51 1010.65 1010.94 1011.33
1012.97 1012.94 1013.49 1012.90 1012.78 1012.84 1012.54 1012.23 1012.06 1012.52 1012.49 1012.42 1012.27 1012.12 1012.16 1012.29 1012.64 1012.67 1012.64 1012.76 1012.95 1013.77 1013.92 1014.11 1014.71 1015.03 1015.05 1014.64 1014.61 1014.45 1014.08 1013.87 1013.72 1013.55 1013.59 1013.06 1012.17 1011.32 1010.82 1010.49 1010.37 1010.45 1010.51 1010.71 1010.91
1012.84 1012.63 1012.75 1012.98 1012.96 1012.68 1012.35 1012.20 1012.20 1012.62 1013.15 1012.83 1012.65 1012.53 1012.88 1013.51 1013.43 1013.38 1013.08 1013.03 1012.96 1013.28 1013.70 1013.97 1014.46 1015.14 1015.24 1015.03 1014.67 1014.10 1012.72 1012.48 1012.56 1012.48 1012.31 1012.00 1011.44 1011.07 1011.01 1010.78 1010.77 1010.83 1010.73 1010.70 1010.67
Wind_Speed
15 13 11 15 15 13 12 14 14 12 12 10 8 7 7 5 6 9 13 12 8 10 3 12 14 13 12 8 4 2 4 10 19 20 6 12 5 3 5 1 6 6 4 4 7
16 9 12 12 15 14 11 12 13 11 11 10 8 7 5 5 10 14 14 8 6 9 5 12 14 13 10 13 8 8 6 11 10 5 9 4 6 6 1 5 6 12 10 10 7
15 13 12 11 13 14 11 10 11 9 10 10 8 7 6 8 11 3 8 9 8 8 6 11 15 15 14 13 11 8 12 14 12 14 6 6 4 4 4 5 7 6 10 6 9
14 15 12 11 11 14 13 11 10 9 9 9 8 7 7 8 5 6 1 9 9 9 9 8 11 7 13 13 16 7 15 13 12 8 4 9 9 4 4 6 5 6 9 6 9
14 14 11 12 11 13 14 12 8 8 8 8 7 6 7 7 6 4 5 8 11 9 12 14 15 14 13 15 16 17 10 19 13 1 14 17 8 7 8 8 3 6 10 8 7
15 13 11 11 10 11 13 11 11 8 7 7 6 8 9 12 5 9 7 5 12 4 9 13 5 6 9 13 20 15 17 16 14 8 14 17 5 11 8 9 7 4 9 8 8
13 14 11 12 10 10 13 12 11 8 7 8 7 8 11 8 5 5 3 10 9 8 7 5 6 4 9 10 16 7 19 11 11 14 8 9 7 5 10 8 7 6 8 9 9
12 13 11 11 10 10 11 12 10 9 8 8 8 10 7 3 4 7 10 9 5 7 6 8 4 4 6 14 13 9 14 14 17 21 10 6 11 9 10 9 7 2 8 7 8
11 11 10 10 9 10 10 10 11 7 7 7 7 6 5 3 1 7 6 6 5 4 7 7 5 3 8 8 10 7 11 14 11 10 7 7 2 10 11 10 6 3 3 7 7
11 9 10 9 10 9 9 6 2 4 7 8 7 5 8 3 5 7 1 3 4 4 6 5 4 2 7 10 11 12 10 13 8 10 11 7 6 6 2 3 7 7 6 4 8
10 9 9 9 11 8 5 3 3 3 4 4 3 7 4 9 4 0 5 4 4 4 1 5 3 7 16 18 12 12 10 13 11 10 11 8 9 7 7 5 7 7 8 6 6
9 9 8 10 10 2 2 4 7 4 3 1 3 4 1 3 6 3 11 3 1 3 7 5 2 3 3 11 16 14 16 7 8 4 9 11 11 12 12 13 13 13 16 14 11
8 8 7 9 2 2 6 1 4 5 4 3 2 4 2 4 7 7 10 3 5 2 1 4 3 3 4 3 12 17 15 13 10 13 6 5 10 11 8 9 12 11 11 13 18
7 7 7 2 1 3 1 5 1 3 2 4 2 0 3 1 2 2 3 2 3 3 5 6 1 5 7 13 8 9 12 12 14 7 4 7 4 13 14 10 10 9 10 9 13
7 7 7 6 5 1 3 3 0 2 2 2 3 1 3 1 2 4 2 5 5 2 2 6 8 4 11 6 8 4 8 8 11 9 6 5 2 7 12 11 12 11 9 9 9
7 6 5 3 4 3 4 1 2 2 3 4 4 4 2 3 5 1 0 2 3 3 6 5 4 6 9 6 6 9 11 4 5 1 1 7 6 6 6 6 6 9 11 11 10
5 5 6 1 2 3 2 1 1 2 1 3 3 4 5 5 4 3 2 3 3 1 4 5 6 8 5 3 5 2 6 4 3 3 3 1 5 9 6 6 5 1 4 7 11
7 10 2 5 2 2 2 2 1 4 1 2 1 3 5 4 2 5 5 5 5 4 4 3 1 3 2 4 2 5 5 4 4 4 5 2 3 5 3 8 7 5 4 5 7
8 4 3 2 1 3 1 1 3 3 4 6 3 1 2 2 0 2 3 5 3 3 2 4 3 4 2 5 5 6 3 1 3 2 6 5 6 2 5 4 6 7 4 4 3
3 4 4 1 1 3 2 1 1 3 4 7 3 6 5 5 4 2 2 3 2 3 3 2 5 2 3 5 3 3 1 1 3 2 1 3 3 4 7 6 4 4 3 4 1
3 3 2 1 3 3 2 2 3 5 1 3 2 1 7 4 3 2 5 3 2 1 7 4 4 2 2 2 3 2 0 1 2 3 1 1 3 8 10 7 7 6 5 3 0
3 3 2 2 2 2 2 4 2 5 4 3 3 2 2 4 6 0 3 5 5 4 2 2 4 3 1 5 3 4 4 4 4 4 1 1 5 8 9 6 7 6 5 4 3
4 3 2 1 3 4 4 6 2 4 5 4 4 2 3 2 2 4 3 6 6 3 3 3 2 3 1 2 5 5 6 6 2 4 3 2 5 3 7 6 5 5 4 6 5
4 4 2 2 3 5 6 6 6 1 1 2 1 3 4 3 1 4 5 2 6 1 2 3 2 2 3 1 2 6 7 7 6 3 5 7 7 3 4 5 7 7 2 4 7
2 5 7 5 6 7 1 9 9 5 4 4 2 5 2 3 4 4 7 4 4 4 2 2 2 3 3 3 3 2 4 8 7 10 6 7 13 10 7 4 6 7 5 4 1
3 3 2 2 2 9 4 6 9 4 1 4 4 1 4 3 6 2 5 6 5 6 2 3 2 3 4 7 6 6 7 9 10 13 13 16 18 15 14 13 9 7 4 5 5
1 1 1 4 5 5 7 8 9 7 1 5 3 3 6 4 6 6 5 5 5 4 6 4 3 2 2 2 5 7 14 14 9 8 9 15 13 10 8 6 5 6 6 7 7
Wind_Direction
329 329 342 337 341 343 343 332 341 343 342 341 330 321 305 283 278 257 258 254 300 316 297 278 230 224 252 230 190 235 226 218 229 219 286 114 110 67 331 5 52 67 52 103 126
334 341 336 345 336 336 339 339 341 344 344 344 342 333 317 294 279 267 273 332 289 298 286 273 220 215 227 211 195 206 191 220 244 248 170 174 149 125 254 127 128 106 82 124 112
337 341 338 341 334 333 333 338 335 340 341 342 342 334 314 300 282 294 23 332 302 285 238 278 282 212 212 228 194 178 222 234 266 280 252 159 103 126 265 112 37 59 116 106 139
331 331 337 337 340 330 330 327 328 335 335 334 335 326 313 280 298 102 131 268 291 266 239 259 250 224 210 219 216 210 210 236 243 342 292 166 133 110 39 85 100 84 101 116 134
322 333 339 330 331 326 329 327 318 322 328 335 337 333 309 248 281 33 327 303 318 217 205 219 229 212 213 206 224 206 196 210 221 153 249 251 158 132 117 116 84 95 122 112 126
326 331 334 326 321 332 327 320 315 301 313 321 329 324 264 287 346 355 333 1 355 190 204 221 260 252 255 207 218 184 225 201 187 182 257 210 244 136 155 149 144 94 119 129 134
321 331 328 331 323 332 323 326 320 285 295 305 321 293 289 282 350 331 319 73 58 55 257 223 36 354 331 235 214 217 196 226 141 169 255 153 206 218 143 164 146 157 114 136 165
318 327 328 330 323 327 321 319 310 288 283 292 301 293 274 70 329 1 337 116 73 79 7 353 353 313 256 307 178 169 190 208 168 162 194 270 205 188 144 156 160 241 123 121 128
314 320 327 331 324 325 319 311 302 267 263 273 267 244 281 168 7 338 353 2 94 64 55 315 56 292 304 240 177 188 188 193 166 189 169 202 232 186 178 162 170 170 276 144 109
310 321 327 328 322 318 318 301 320 248 232 240 261 266 308 357 1 314 302 354 61 42 81 332 62 8 259 212 178 174 192 189 174 183 244 191 245 105 297 332 196 197 213 246 145
309 319 330 327 319 308 299 268 214 220 238 315 311 313 339 352 241 306 359 314 135 62 116 182 141 213 207 208 177 157 182 181 171 155 185 210 217 228 186 210 256 260 272 280 205
309 319 335 326 320 317 229 239 56 351 267 119 289 259 347 317 281 83 349 332 89 9 312 180 203 230 293 216 200 179 183 229 85 134 179 197 222 209 207 193 213 214 229 239 252
307 315 330 328 316 242 238 329 21 315 256 116 8 327 1 314 352 6 351 315 82 308 174 63 59 336 139 231 187 197 198 151 156 173 213 221 226 226 226 219 198 216 226 227 226
298 309 316 343 243 221 250 87 282 324 278 19 158 55 247 226 98 4 302 340 76 347 1 62 309 254 149 213 182 127 150 164 134 136 170 216 255 208 205 207 218 213 222 234 219
298 299 295 220 313 246 88 126 274 232 7 52 13 9 265 358 130 33 344 312 46 76 314 45 346 48 152 140 90 350 81 119 136 179 117 188 264 274 183 207 209 210 216 223 234
305 296 166 179 245 71 111 157 225 236 32 358 312 302 169 91 76 357 155 176 24 318 102 53 360 14 350 29 54 224 125 88 61 358 356 190 188 275 174 183 198 196 199 205 215
303 190 184 151 73 141 143 233 205 7 236 22 19 298 75 54 63 147 155 143 103 64 45 31 3 343 323 339 333 199 128 74 36 22 232 317 201 252 97 148 125 63 297 228 195
154 157 221 46 82 200 219 211 65 97 72 82 83 52 50 14 85 29 111 73 70 46 91 76 95 339 49 307 334 217 187 149 174 177 199 332 238 240 48 97 103 72 327 341 342
155 208 149 57 68 287 250 139 129 133 181 152 198 218 116 142 101 161 80 118 201 210 92 133 76 289 44 321 330 256 264 324 343 287 91 195 252 332 159 189 164 168 176 256 265
201 176 92 91 274 267 247 55 153 189 132 173 282 193 119 127 159 245 130 52 89 338 320 106 96 303 88 287 247 325 202 152 348 81 224 207 255 211 130 106 107 136 180 199 201
247 147 93 255 252 240 203 133 147 172 269 248 336 134 126 141 117 196 83 120 25 163 306 331 98 99 151 236 233 185 213 288 2 73 298 135 283 123 119 118 108 81 65 48 332
196 118 86 252 205 259 225 138 343 151 178 253 285 293 177 155 173 266 70 78 155 171 194 51 101 95 188 172 243 273 283 242 120 238 270 158 278 118 117 122 116 123 103 75 20
139 110 75 299 198 211 132 133 196 164 184 188 210 322 338 227 70 96 83 112 169 168 27 354 133 106 327 231 228 230 228 251 52 49 197 149 258 128 144 151 201 136 171 150 134
146 130 132 216 276 280 160 153 155 336 281 264 4 250 206 165 214 135 115 150 164 160 50 342 246 213 162 204 202 194 223 228 143 136 209 211 270 230 208 213 190 208 278 25 168
211 149 172 177 221 228 189 162 153 165 254 253 202 277 255 141 160 121 95 125 174 160 231 256 206 99 300 300 79 301 257 231 197 217 198 229 243 255 261 243 237 235 137 128 340
173 156 159 61 136 198 172 224 179 117 218 187 245 223 248 360 28 97 153 187 177 163 238 194 307 78 290 213 205 248 245 241 245 240 235 246 262 275 293 304 302 294 315 221 225
61 41 321 126 186 197 179 179 185 128 111 6 17 245 92 58 12 359 342 347 338 150 212 174 158 132 285 15 307 286 238 225 228 231 226 238 246 266 274 302 329 335 316 286 258